Theta_e
287 280 276 278 280 282 281 279 277 281 283 282 280 280 283 284 285 284 285 285 286 288 290 291 291 290 288 287 287 287 287 287 286 286 285 286 286 288 287 287 288 289 289 289
284 278 281 283 283 282 280 278 277 280 284 282 281 281 283 284 285 285 286 286 286 287 288 289 290 289 288 288 287 287 287 287 287 287 287 288 288 287 288 288 288 289 288 289
279 280 284 283 281 280 279 277 277 277 281 283 280 281 282 283 285 287 287 288 288 287 288 288 289 288 288 287 287 288 288 287 287 288 288 287 287 286 286 287 287 288 289 289
280 282 281 280 280 280 277 280 280 280 278 274 280 276 280 281 282 286 287 287 288 288 288 288 289 289 288 289 289 289 289 288 288 288 287 286 286 284 284 285 286 287 288 287
278 278 278 280 279 280 279 281 280 280 278 277 279 274 282 280 282 283 284 288 288 289 288 287 288 289 289 290 289 289 289 289 289 288 287 287 286 286 284 285 286 286 287 287
277 280 279 279 281 281 283 280 280 279 278 273 276 276 279 282 282 285 285 285 289 290 289 288 287 287 287 288 290 289 289 289 289 288 288 287 286 286 285 284 285 286 287 287
278 277 278 279 278 281 280 278 271 273 273 274 275 273 280 284 287 286 286 286 286 289 290 287 286 284 285 285 286 288 289 289 291 290 289 288 287 286 286 285 285 285 286 286
276 277 277 279 276 275 277 277 273 267 270 273 276 272 282 285 286 286 286 286 286 286 290 289 287 286 284 285 286 286 288 288 290 290 290 289 288 288 287 287 287 286 287 287
275 277 276 277 277 277 277 276 276 267 260 266 273 278 285 283 285 285 285 285 284 285 286 289 290 287 286 285 286 287 287 287 288 288 289 289 288 287 288 288 287 287 288 288
277 275 276 276 277 277 276 277 273 271 266 264 273 275 278 282 284 284 284 283 285 286 287 287 288 289 288 288 287 287 288 288 289 288 288 288 288 288 288 288 287 288 288 288
278 278 276 276 275 275 273 274 274 274 274 267 266 274 281 282 284 284 284 285 285 286 287 287 288 288 289 289 287 287 287 287 288 289 288 288 288 288 288 287 288 288 288 288
279 277 271 276 274 276 276 276 276 269 269 272 271 274 287 285 283 283 284 286 290 286 288 288 288 289 288 287 287 287 287 287 288 289 289 288 288 288 287 287 288 288 288 288
280 275 269 276 276 275 274 276 278 272 271 270 269 276 284 286 288 289 288 289 290 291 290 290 286 286 287 288 288 287 287 287 289 289 289 289 288 288 288 288 288 288 288 288
285 276 276 277 280 277 273 273 273 271 267 276 275 278 283 285 286 287 288 288 289 289 288 286 285 285 286 287 287 288 289 289 289 288 288 288 288 289 289 289 288 288 288 288
281 271 272 274 277 276 277 278 277 272 276 272 278 279 282 284 285 286 288 287 285 285 285 284 284 285 285 286 287 287 287 288 289 288 287 288 289 289 289 289 289 288 288 288
278 272 269 267 273 276 275 278 278 278 278 277 277 277 284 286 285 284 284 283 282 283 285 285 285 286 287 287 287 287 287 287 287 287 287 288 289 289 288 288 288 288 288 287
275 272 271 266 270 268 268 275 278 277 278 278 274 280 282 281 282 282 282 281 282 284 285 285 285 287 287 288 289 286 287 288 287 286 286 287 287 287 286 287 287 287 287 287
272 274 277 271 268 262 276 280 280 279 279 280 280 279 281 281 283 284 285 283 285 284 284 285 286 287 287 287 286 286 286 286 286 285 286 286 285 285 286 286 285 286 286 286
282 280 275 271 270 273 277 279 277 275 276 279 276 278 279 281 281 281 284 285 284 283 284 285 285 286 287 286 287 287 286 286 286 286 286 286 286 285 285 285 285 286 285 285
278 281 278 271 269 261 274 276 279 278 272 277 276 276 276 277 271 275 281 282 283 283 283 284 284 285 285 286 286 286 286 286 285 286 286 286 285 284 284 284 284 285 285 285
272 273 274 274 272 270 275 276 279 268 272 276 276 276 275 273 276 279 282 282 283 283 282 283 283 283 285 286 286 285 285 283 285 285 284 283 283 283 283 283 284 283 283 283
270 268 268 266 264 266 276 275 272 275 276 276 276 276 275 277 278 279 279 279 281 281 282 282 282 283 284 285 285 285 284 286 285 284 281 281 282 282 283 280 281 281 281 280
270 274 271 272 272 278 278 276 277 277 276 276 275 276 277 276 277 278 278 279 280 281 282 282 282 282 283 284 284 283 284 285 284 283 280 281 282 282 282 280 280 279 279 279
274 277 272 273 275 276 277 279 278 278 276 277 277 277 277 276 278 278 279 279 280 281 282 282 281 280 281 282 283 283 284 284 282 280 280 281 281 281 281 279 280 279 279 278
275 275 272 273 276 276 277 277 276 277 278 277 277 278 277 277 278 278 279 279 280 281 281 281 280 280 280 281 281 283 283 283 282 282 282 281 280 280 279 279 279 279 280 280
276 275 271 270 276 275 275 277 278 276 276 277 277 277 278 278 278 279 278 279 281 280 280 280 280 279 279 279 279 280 281 282 281 280 280 281 281 280 278 276 277 280 283 283
Wind_Speed
6 10 6 6 4 3 5 5 6 5 2 8 5 11 14 10 11 9 10 10 9 10 8 11 14 15 14 12 11 9 7 6 4 2 1 2 3 3 3 3 4 3 2 2
7 5 4 6 5 5 3 3 6 8 5 5 7 16 7 8 9 10 11 10 10 8 9 10 10 11 13 14 13 12 12 10 8 6 4 4 3 4 3 3 4 5 5 4
4 1 5 4 5 8 3 4 4 5 12 3 9 7 5 2 3 6 8 7 8 11 11 13 16 16 13 13 14 14 13 13 11 12 7 6 3 2 3 4 4 5 6 6
4 2 3 3 4 4 5 1 3 7 6 2 7 6 6 3 5 6 9 10 11 9 7 9 14 15 16 17 14 14 13 13 12 12 9 11 8 7 4 6 5 6 7 7
3 5 6 4 3 2 6 3 3 1 3 4 8 5 8 5 6 6 9 11 11 10 10 11 14 16 13 14 14 15 15 15 15 14 14 10 12 8 5 4 7 8 8 9
3 1 2 2 3 3 6 4 2 1 2 5 5 5 9 5 5 7 4 6 10 10 9 9 8 9 11 11 13 13 16 17 17 16 17 18 16 12 9 8 9 8 8 8
1 1 2 2 4 1 3 5 6 8 8 5 2 4 11 10 8 5 8 9 7 7 7 8 8 8 7 10 12 11 13 15 15 16 17 19 19 16 17 14 10 10 9 8
3 7 1 3 3 1 3 2 6 4 2 6 3 6 6 2 7 6 5 5 6 4 5 7 9 9 9 11 12 14 15 16 16 17 19 16 17 12 13 14 12 11 13 12
2 4 2 4 3 2 3 2 2 7 2 5 5 9 9 3 7 8 9 8 7 6 5 9 9 10 11 11 14 15 16 17 18 18 15 17 15 17 15 16 14 12 13 12
2 4 2 2 2 2 2 1 3 4 2 4 7 6 8 9 7 7 9 6 7 7 7 8 8 10 12 14 14 14 17 19 17 16 16 14 16 17 16 15 17 17 15 14
3 4 3 2 4 3 2 1 4 3 5 5 3 8 7 5 7 10 7 8 8 9 9 9 9 9 11 11 9 12 13 15 13 14 15 15 16 17 16 16 18 18 17 16
1 5 2 5 2 3 2 4 5 7 7 3 5 9 17 15 6 7 9 12 16 5 8 7 8 9 8 8 8 8 8 8 12 14 13 15 15 16 16 18 19 19 19 18
3 2 4 7 3 3 3 4 4 4 3 9 5 10 5 11 20 22 21 17 19 22 21 17 9 8 8 8 6 6 7 9 11 11 12 13 15 16 19 19 19 19 19 19
3 2 9 10 8 5 3 3 5 7 5 13 14 32 21 22 21 17 19 21 21 18 16 10 8 8 7 7 7 7 7 6 8 8 9 12 15 17 18 18 18 18 19 19
5 7 4 6 6 3 4 6 11 11 17 11 27 23 25 23 21 21 18 14 10 12 14 9 7 7 8 8 8 7 7 7 7 7 8 12 15 15 16 17 17 18 18 19
1 3 3 5 5 3 4 11 15 18 15 17 22 26 23 19 12 15 18 12 7 11 14 14 10 12 14 12 11 8 7 8 7 8 9 11 11 11 13 15 16 16 18 18
3 3 3 7 3 6 7 8 4 4 7 7 7 10 12 14 16 16 18 8 8 11 17 18 13 14 15 15 17 8 8 9 9 9 11 11 11 11 12 12 12 15 17 16
5 4 2 5 5 4 7 3 6 6 3 6 8 10 14 14 18 14 16 6 19 25 23 16 15 16 13 10 9 8 10 11 12 12 13 12 10 10 13 12 13 16 14 15
4 6 3 4 6 8 8 6 6 4 12 7 15 19 23 23 29 20 4 16 25 13 11 13 10 13 18 17 12 14 13 12 13 15 14 13 13 12 13 13 14 14 12 14
2 3 5 3 5 7 3 6 7 3 13 15 24 27 27 26 19 28 22 15 15 15 15 19 22 22 20 19 16 17 20 16 15 16 14 12 13 12 14 15 14 13 11 14
3 2 14 12 9 8 2 7 5 1 7 22 18 18 22 21 17 27 24 24 23 21 19 20 19 16 16 17 20 21 18 16 20 17 12 11 13 12 13 13 13 12 11 11
9 8 5 1 3 12 4 5 4 4 15 17 21 21 22 24 27 26 28 28 26 25 23 19 16 16 17 17 15 16 17 22 19 16 12 13 13 11 10 9 13 12 11 11
2 7 6 9 7 4 4 7 9 12 15 18 19 20 22 26 28 28 25 28 25 24 20 13 14 16 15 14 14 18 20 20 18 15 13 14 14 14 13 11 13 10 9 10
4 4 4 2 3 8 13 15 13 14 16 20 18 20 22 26 26 25 24 22 21 18 15 15 15 14 15 15 16 18 19 18 15 14 16 15 14 16 13 8 8 9 10 9
6 5 3 8 19 17 21 15 11 15 20 20 20 22 22 25 24 23 20 21 17 15 16 14 13 15 18 18 18 20 20 19 17 17 16 16 13 14 13 11 9 9 12 11
7 14 8 14 20 16 20 16 14 17 22 21 23 23 26 24 23 22 20 18 17 16 15 13 16 17 18 18 20 20 21 20 18 18 16 15 13 12 10 10 11 17 23 20
Wind_Direction
2 55 19 327 327 300 272 276 298 305 19 350 260 279 267 199 207 218 217 214 219 231 229 202 191 183 181 185 190 196 196 206 175 152 227 277 259 251 257 250 245 229 246 231
25 45 319 301 281 293 17 334 337 284 314 344 309 302 282 186 222 214 210 218 222 209 197 191 192 192 195 193 198 197 199 191 188 185 189 208 196 217 221 219 220 205 208 221
91 326 316 331 9 17 47 55 332 260 318 294 321 303 326 21 182 208 224 223 224 215 210 187 186 189 193 205 203 203 202 201 200 198 200 211 225 210 181 219 213 211 210 215
72 324 359 346 67 3 338 72 311 315 10 325 19 281 322 341 270 230 234 228 228 228 220 199 197 196 199 201 196 204 205 206 201 197 208 212 217 212 200 180 183 202 208 213
314 11 12 19 322 355 260 350 281 292 7 13 343 56 268 6 320 284 247 235 236 224 211 207 201 205 207 200 202 201 202 207 207 201 205 213 218 217 186 190 205 211 209 199
64 310 47 249 281 219 304 330 109 6 72 39 280 86 296 332 294 325 320 250 231 224 221 219 211 197 202 200 202 205 208 212 207 205 206 208 212 216 215 209 201 201 205 213
84 359 337 345 316 239 3 25 351 3 10 229 11 31 245 290 294 287 328 339 279 229 224 225 215 213 207 200 204 207 211 221 218 216 216 215 218 211 212 209 213 211 209 204
114 326 74 352 39 280 9 91 138 260 272 279 343 251 256 272 327 350 356 347 15 277 255 236 227 215 214 211 207 208 213 225 216 217 222 222 222 221 224 220 216 216 216 217
60 286 39 32 349 32 306 62 129 101 25 45 265 285 321 6 21 23 17 16 327 316 262 241 234 223 215 212 214 209 217 224 223 224 224 224 224 227 229 230 225 225 222 216
150 311 50 321 334 26 32 312 61 13 20 305 291 290 240 329 321 358 345 337 323 355 297 274 254 239 232 228 220 210 218 228 230 230 229 230 230 231 231 229 229 231 231 220
110 119 280 343 201 175 49 35 31 113 141 184 274 258 218 256 274 311 306 305 340 327 324 309 288 265 245 240 222 222 225 233 237 234 231 232 233 231 229 230 232 231 231 220
259 144 235 243 274 263 202 161 140 116 275 225 209 263 261 281 283 315 318 311 328 270 290 289 294 277 279 256 254 241 244 234 237 239 234 233 235 236 234 232 232 231 231 228
198 296 357 333 357 356 199 189 142 116 71 212 226 261 315 326 323 323 325 326 319 319 317 323 324 344 345 347 329 286 259 245 248 245 239 236 235 234 238 237 236 234 234 232
110 163 180 241 236 144 183 219 210 149 152 264 237 274 284 287 295 312 312 304 301 302 304 313 357 359 359 355 349 336 315 276 259 250 243 240 239 236 238 241 241 239 235 235
142 203 205 262 289 273 260 239 229 200 238 220 271 275 283 293 299 296 296 300 318 332 339 350 1 352 344 329 324 320 313 308 301 277 252 245 249 246 245 242 241 239 236 235
32 266 82 297 273 285 238 250 246 243 257 256 260 270 275 290 320 358 349 342 5 17 357 339 332 338 332 323 302 289 294 298 306 298 286 286 280 257 243 244 242 240 237 235
147 131 63 270 300 326 316 233 211 187 199 215 255 295 16 352 338 342 332 319 351 352 338 326 319 324 318 311 302 298 314 310 305 290 286 284 278 269 258 248 251 245 239 236
144 110 122 272 17 298 240 199 207 225 239 290 330 3 333 322 312 315 301 290 331 331 330 335 325 320 320 320 309 306 304 293 287 283 285 283 277 274 270 260 236 236 236 236
217 180 225 224 216 310 312 14 350 336 299 72 352 336 329 329 326 316 334 331 316 324 332 321 321 317 311 303 286 293 291 293 293 283 284 285 276 275 276 268 257 253 250 235
89 219 204 172 236 235 239 304 344 325 288 357 342 331 329 327 313 304 324 328 332 318 310 303 299 296 296 292 291 290 290 276 265 264 259 259 265 267 272 273 270 266 249 243
131 202 218 234 247 276 337 319 330 159 289 329 321 306 308 305 291 299 312 311 307 295 291 288 292 289 284 289 293 294 290 278 273 271 267 258 263 263 261 268 267 267 259 252
171 165 192 136 234 270 21 23 136 272 299 303 310 313 309 310 308 305 305 306 310 308 304 301 298 297 294 294 291 285 286 285 281 277 263 268 272 268 270 253 268 261 250 245
274 191 192 188 208 290 230 201 262 307 297 299 302 306 307 306 304 302 302 305 305 303 304 299 296 297 295 288 284 293 289 288 283 283 280 279 278 273 268 267 273 276 257 244
279 160 218 308 170 252 282 294 286 282 284 294 298 300 300 298 298 297 296 297 299 301 308 299 299 297 294 297 293 289 290 286 285 279 279 286 285 278 270 263 262 260 258 247
186 144 186 272 277 279 268 258 257 284 289 292 293 295 291 297 293 291 292 297 298 300 283 280 287 292 294 296 296 294 291 291 290 289 287 286 281 279 280 269 255 247 250 231
193 245 229 252 262 258 275 283 276 283 289 295 297 298 301 298 291 290 291 288 279 270 278 284 287 287 289 294 294 292 291 290 291 288 287 285 281 280 274 272 276 246 250 248